Skip Page Navigation
NASA JPL Caltech
NASA Logo - Jet Propulsion Laboratory + View the NASA Portal
+ Center for Near-Earth Object Studies
JPL Home Earth Solar System Stars & Galaxies Technology
JPL Solar System Dynamics
BODIES ORBITS EPHEMERIDES TOOLS PHYSICAL DATA DISCOVERY FAQ SITE MAP
JPL Small-Body Database Browser
Search: [ help ]  
134608 (1999 TS200)
Classification: Main-belt Asteroid          SPK-ID: 2134608
Ephemeris | Orbit Diagram | Orbital Elements | Mission Design | Physical Parameters | Discovery Circumstances ]

[ show orbit diagram ]
Orbital Elements at Epoch 2459200.5 (2020-Dec-17.0) TDB
Reference: JPL 20 (heliocentric ecliptic J2000)
 Element Value Uncertainty (1-sigma)   Units 
e .1813149543977805 4.3038e-08  
a 2.271254343946333 8.577e-09 au
q 1.859441966147942 9.5422e-08 au
i 5.984893267496525 4.5053e-06 deg
node 314.3066767249645 4.3831e-05 deg
peri 93.31424976460082 4.6021e-05 deg
M 20.6241540276044 1.2102e-05 deg
tp 2459128.873995448703
(2020-Oct-06.37399545)
4.2034e-05 TDB
period 1250.250633502562
3.42
7.082e-06
1.939e-08
d
yr
n .2879422656171463 1.631e-09 deg/d
Q 2.683066721744723 1.0132e-08 au
  Orbit Determination Parameters
   # obs. used (total)      821  
   data-arc span      7859 days (21.52 yr)  
   first obs. used      1999-09-04  
   last obs. used      2021-03-11  
   planetary ephem.      DE441  
   SB-pert. ephem.      SB441-N16  
   condition code      0  
   norm. resid. RMS      .47642  
   source      ORB  
   producer      Otto Matic  
   solution date      2021-Apr-13 18:09:07  

Additional Information
 Earth MOID = .879927 au 
 Jupiter MOID = 2.71816 au 
 T_jup = 3.583 
[ show covariance matrix ]

Ephemeris | Orbit Diagram | Orbital Elements | Mission Design | Physical Parameters | Discovery Circumstances ]

Physical Parameter Table
Parameter Symbol Value Units Sigma Reference Notes
absolute magnitude H 16.01   n/a E2021B55  

134608 (1999 TS200)          Discovered 1999-Oct-13 by LINEAR at Socorro
Reference: 20060907/Numbers.arcLast Updated: 2006-09-10
Ephemeris | Orbit Diagram | Orbital Elements | Mission Design | Physical Parameters | Discovery Circumstances ]
ABOUT SSD CREDITS/AWARDS PRIVACY/COPYRIGHT GLOSSARY LINKS
FirstGov 2021-Apr-17 01:13 UT
(server date/time)  
NASA Home Page
Site Manager:   Ryan S. Park
Webmaster  Alan B. Chamberlin